Location: Hemaruka
(51.7801°N, 111.0917°W)
Time: 11:57:03
(UTC+00:00)

MOZHAYETS 4 - Pass Details

Date: 08 December 2023
Orbit: 654 x 672 km, 98.3° (Epoch: 28 February)

Event Time Altitude Azimuth Distance (km) Brightness Sun altitude
Rises 01:36:53 0° 0° (N) 3,037 11.0 -20.8°
Reaches altitude 10° 01:40:51 10° 326° (NW) 2,119 10.6 -21.4°
Maximum altitude 01:42:06 11° 310° (NW) 2,048 10.7 -21.6°
Drops below altitude 10° 01:43:21 10° 294° (WNW) 2,116 11.1 -21.8°
Sets 01:47:18 0° 260° (W) 3,025 12.6 -22.4°
